Dauntless Aviation
Greetings, Guest! To participate, [sign up for a free account] or [log in]
Airports South America Argentina
SABE
AEP

Aeroparque Jorge Newbery

Buenos Aires, ARGENTINA

Airport Info
Edit

Location

Latitude / Longitude: 34°33'33"S / 58°24'56"W
  34°33.552'S / 58°24.936'W
  -34.5592 / -58.4156

Nearby radio navigation aids

FDO SAN FERNANDO VOR/DME. 132.7° 10.6nm from FDO to field.
OP AEROPARQUE JORGE NEWBERY NDB. 131.1° 4.3nm from OP to field.

Runway Information

Runway 13 /31

Dimensions: 6890 x 131 ft.
Surface: ASP
 
Runway 13
Runway 31
Latitude: -34.553942 -34.563844
Longitude: -58.425247 -58.407506
Elevation: 18 ft. 18 ft.
Runway true heading: 126.3 306.3
 

Instrument Procedures

STARs (Standard Terminal Arrivals)

  STAR Rwy 13/16 PAGON7C SANANTONIO7C ASADA7C VALOS8C
  STAR Rwy 13/16 SURBO7A SARGO7C KOVUK7C TENIL7C BELGRANO7C
  STAR Rwy 31 SURBO2B SARGO7D KOVUK7D TENIL7D BELGRANO7D VALOS7D ASADA7D
  STAR Rwy 31 PAGON7D SANANTONIO7D

IAPs (Instrument Approach Procedures)

  VOR (DME) ILS (DME) Rwy 13 (From VANAR)
  VOR (DME) ILS (DME) Rwy 13
  LI ILS (DME) Rwy 13
  VOR (DME) LO LI Rwy 13 (From VANAR)
  LI LO LI Rwy 13
  LI Rwy 13 (From QUILMES)
  LI Rwy 31

Departure Procedures

  SID Rwy 13/31
  SID Rwy 13/31 Textual Description
  SID Rwy 13/31 LANDA3B BIVAM3B ATOVO3B
  SID 13/31 LANDA3B BIVAM3B ATOVO3B Textual Description
  SID Rwy 13/31 KUKEN7 SUROBO7 DORVO7 LAPLATA7
  SID Rwy 13/31 KUKEN7 SUROBO7 DORVO7 LAPLATA7 Textual Description
  SID S Rwy 13/31
  SID Rwy 13/31 Textual Description
Satellite photo at:
Airport distance calculator
From:
Weather Reports

METAR

SABE

SABE 050200Z 36014KT CAVOK 10/03 Q1023
SADF
10.6nm W
SADF 050200Z 36005KT CAVOK 06/04 Q1023
SAEZ
16.2nm S
SAEZ 050200Z VRB02KT 9000 NSC 06/03 Q1023

TAF

SABE
TAF SABE 042300Z 0500/0524 02005KT CAVOK TX14/0518Z TN09/0510Z BECMG 0502/0504 36010KT BECMG 0512/0514 35015KT
SADF
10.6nm W
TAF SADF 042300Z 0500/0524 05005KT CAVOK TX13/0518Z TN05/0510Z BECMG 0504/0506 02010KT 5000 BR BECMG 0513/0515 36015KT CAVOK
SAEZ
16.2nm S
TAF SAEZ 042300Z 0500/0524 VRB03KT CAVOK TX14/0519Z TN2/0510Z TEMPO 0505/0510 4000 MIFGBR NSC BECMG 0511/0513 01010KT TEMPO 0514/0520 01015G25KT
SUCA
30.3nm NE
SUCA 042345Z 0500/0524 01005KT CAVOK TX14/0518Z TN03/0510Z BECMG 0511/0513 36015KT
Safelog

 

Dauntless Aviation

© 2007-2015 Dauntless Aviation, all rights reserved
Information provided via PilotNav comes from a variety of official and unofficial data sources. As errors are possible, do not use PilotNav for primary flight planning purposes. Verify any information that you receive via PilotNav with current and canonical charts and other official documents. The material in this database is subject to database copyrights held by Dauntless Aviation and may not be copied without the express permission of Dauntless Aviation - licenses for use of part of all of this data are available for purchase; enquire via the Dauntless Aviation helpdesk. A number of mechanisms and markers exist in the database to protect against and identify infringement / copyright. Automated queries against this website are stictly prohibited, and all activity is logged and analyzed.